TimeCST,TemperatureF,Dew PointF,Humidity,Sea Level PressureIn,VisibilityMPH,Wind Direction,Wind SpeedMPH,Gust SpeedMPH,PrecipitationIn,Events,Conditions,WindDirDegrees,DateUTC
12:15 AM,34.3,28.8,80,30.03,7.0,North,6.9,-,N/A,,Overcast,10,2013-02-25 06:15:00
12:35 AM,34.3,28.9,81,30.03,7.0,North,8.1,-,N/A,,Overcast,10,2013-02-25 06:35:00
12:55 AM,33.8,29.3,84,30.03,5.0,North,9.2,-,N/A,,Haze,10,2013-02-25 06:55:00
1:15 AM,33.8,29.1,83,30.03,4.0,NNE,11.5,-,N/A,,Haze,20,2013-02-25 07:15:00
1:35 AM,32.9,29.3,87,30.03,3.0,North,11.5,-,N/A,,Overcast,10,2013-02-25 07:35:00
1:55 AM,32.4,28.8,87,30.03,4.0,NNE,12.7,-,N/A,,Overcast,30,2013-02-25 07:55:00
2:15 AM,32.0,28.0,85,30.01,4.0,NNE,11.5,-,N/A,,Overcast,30,2013-02-25 08:15:00
2:35 AM,32.0,28.0,85,30.04,4.0,NNE,6.9,-,N/A,,Overcast,20,2013-02-25 08:35:00
2:55 AM,32.0,28.2,86,30.03,4.0,NNE,6.9,-,N/A,,Overcast,20,2013-02-25 08:55:00
3:15 AM,32.0,27.5,83,30.01,4.0,North,10.4,-,N/A,,Haze,10,2013-02-25 09:15:00
3:35 AM,31.8,27.3,83,30.01,4.0,North,12.7,-,N/A,Snow,Light Snow,10,2013-02-25 09:35:00
3:55 AM,31.6,27.3,84,30.01,4.0,North,10.4,-,N/A,,Overcast,10,2013-02-25 09:55:00
4:15 AM,31.6,27.1,83,30.01,5.0,North,12.7,-,N/A,,Overcast,360,2013-02-25 10:15:00
4:35 AM,31.6,27.1,83,30.01,5.0,North,11.5,-,N/A,,Overcast,10,2013-02-25 10:35:00
4:55 AM,31.6,27.3,84,30.03,5.0,North,11.5,-,N/A,,Overcast,360,2013-02-25 10:55:00
5:15 AM,31.1,27.1,85,30.02,4.0,North,11.5,-,N/A,,Overcast,10,2013-02-25 11:15:00
5:35 AM,31.1,27.1,85,30.02,4.0,NNE,10.4,-,N/A,,Overcast,20,2013-02-25 11:35:00
5:55 AM,31.1,27.1,85,30.03,4.0,NNE,10.4,-,N/A,,Overcast,30,2013-02-25 11:55:00
6:15 AM,31.1,27.0,85,30.03,4.0,NNE,8.1,-,N/A,,Overcast,30,2013-02-25 12:15:00
6:35 AM,30.9,27.0,85,30.03,4.0,NNE,10.4,-,N/A,,Overcast,30,2013-02-25 12:35:00
6:55 AM,30.7,27.3,87,30.03,2.5,NNE,9.2,-,N/A,,Overcast,30,2013-02-25 12:55:00
7:15 AM,30.7,27.3,87,30.03,3.0,NNE,8.1,-,N/A,,Overcast,30,2013-02-25 13:15:00
7:35 AM,30.7,27.3,87,30.03,2.5,NNE,9.2,-,N/A,,Overcast,20,2013-02-25 13:35:00
7:55 AM,30.7,27.1,86,30.03,2.5,North,8.1,-,N/A,,Overcast,10,2013-02-25 13:55:00
8:15 AM,30.9,27.0,85,30.04,3.0,NNE,8.1,-,N/A,,Overcast,30,2013-02-25 14:15:00
8:35 AM,31.1,27.1,85,30.04,3.0,NNE,10.4,-,N/A,,Overcast,20,2013-02-25 14:35:00
8:55 AM,31.1,27.1,85,30.03,3.0,North,13.8,-,N/A,,Overcast,360,2013-02-25 14:55:00
9:15 AM,31.1,27.0,85,30.03,3.0,North,13.8,-,N/A,,Overcast,10,2013-02-25 15:15:00
9:35 AM,31.8,27.0,82,30.04,4.0,NNE,12.7,-,N/A,,Haze,30,2013-02-25 15:35:00
9:55 AM,32.0,27.1,82,30.04,4.0,NNE,11.5,-,N/A,,Haze,30,2013-02-25 15:55:00
10:15 AM,32.0,27.3,83,30.04,4.0,NNE,12.7,-,N/A,,Haze,20,2013-02-25 16:15:00
10:35 AM,32.4,27.3,82,30.04,5.0,NE,10.4,-,N/A,,Haze,40,2013-02-25 16:35:00
10:55 AM,33.1,27.9,81,30.03,5.0,NNE,10.4,-,N/A,,Haze,20,2013-02-25 16:55:00
11:15 AM,33.6,27.9,79,30.02,4.0,North,11.5,-,N/A,,Haze,10,2013-02-25 17:15:00
11:35 AM,34.0,27.3,77,30.01,4.0,NNE,13.8,-,N/A,,Haze,30,2013-02-25 17:35:00
11:55 AM,34.5,27.9,77,30.00,5.0,NNE,11.5,-,N/A,,Haze,30,2013-02-25 17:55:00
12:15 PM,34.9,28.2,77,30.00,5.0,NE,12.7,-,N/A,,Haze,40,2013-02-25 18:15:00
12:35 PM,35.6,28.6,76,29.98,5.0,NNE,16.1,20.7,N/A,,Haze,20,2013-02-25 18:35:00
12:55 PM,35.6,28.4,75,29.97,5.0,NNE,13.8,-,N/A,,Haze,30,2013-02-25 18:55:00
1:15 PM,35.8,28.4,75,29.96,5.0,NNE,17.3,-,N/A,,Haze,20,2013-02-25 19:15:00
1:35 PM,35.8,28.4,75,29.96,5.0,NE,12.7,-,N/A,,Haze,40,2013-02-25 19:35:00
1:55 PM,35.8,27.5,72,29.96,5.0,NE,15.0,18.4,N/A,,Haze,40,2013-02-25 19:55:00
2:15 PM,35.2,26.6,71,29.95,5.0,NNE,17.3,25.3,N/A,,Haze,30,2013-02-25 20:15:00
2:35 PM,35.6,26.6,70,29.95,7.0,NNE,15.0,-,N/A,,Clear,20,2013-02-25 20:35:00
2:55 PM,35.8,26.8,70,29.95,7.0,NNE,13.8,19.6,N/A,,Clear,30,2013-02-25 20:55:00
3:15 PM,35.6,27.5,72,29.95,7.0,NNE,17.3,20.7,N/A,,Scattered Clouds,30,2013-02-25 21:15:00
3:35 PM,35.6,27.3,72,29.95,7.0,NNE,18.4,-,N/A,,Scattered Clouds,30,2013-02-25 21:35:00
3:55 PM,35.1,27.5,74,29.94,7.0,NNE,15.0,20.7,N/A,,Scattered Clouds,20,2013-02-25 21:55:00
4:15 PM,35.1,27.7,74,29.94,7.0,NNE,15.0,19.6,N/A,,Scattered Clouds,20,2013-02-25 22:15:00
4:35 PM,35.6,28.4,75,29.94,7.0,NNE,12.7,20.7,N/A,,Clear,20,2013-02-25 22:35:00
4:55 PM,34.9,27.5,74,29.93,7.0,NNE,16.1,21.9,N/A,,Clear,30,2013-02-25 22:55:00
5:15 PM,34.7,27.5,75,29.91,7.0,NNE,18.4,-,N/A,,Clear,20,2013-02-25 23:15:00
5:35 PM,33.8,27.3,77,29.91,7.0,NNE,15.0,19.6,N/A,,Scattered Clouds,30,2013-02-25 23:35:00
5:55 PM,33.4,27.1,78,29.91,7.0,NNE,13.8,20.7,N/A,,Scattered Clouds,30,2013-02-25 23:55:00
6:15 PM,32.9,27.0,79,29.91,7.0,NNE,13.8,20.7,N/A,,Scattered Clouds,30,2013-02-26 00:15:00
6:35 PM,32.5,27.0,80,29.91,7.0,NNE,15.0,19.6,N/A,,Mostly Cloudy,20,2013-02-26 00:35:00
6:55 PM,32.0,26.6,80,29.91,7.0,NNE,12.7,-,N/A,,Scattered Clouds,20,2013-02-26 00:55:00
7:15 PM,32.0,26.6,80,29.90,7.0,NNE,12.7,-,N/A,,Mostly Cloudy,20,2013-02-26 01:15:00
7:35 PM,32.0,26.6,80,29.89,7.0,NNE,15.0,-,N/A,,Scattered Clouds,20,2013-02-26 01:35:00
7:55 PM,32.0,26.6,80,29.88,7.0,NNE,13.8,19.6,N/A,,Clear,20,2013-02-26 01:55:00
8:15 PM,31.8,26.6,81,29.86,7.0,NNE,16.1,-,N/A,,Clear,20,2013-02-26 02:15:00
8:35 PM,31.1,26.6,83,29.85,5.0,NNE,17.3,25.3,N/A,,Haze,20,2013-02-26 02:35:00
8:55 PM,31.1,26.4,83,29.88,5.0,NNE,11.5,18.4,N/A,,Haze,30,2013-02-26 02:55:00
9:15 PM,30.7,26.6,85,29.89,5.0,NNE,13.8,21.9,N/A,,Haze,30,2013-02-26 03:15:00
9:35 PM,30.7,26.6,85,29.89,4.0,NNE,13.8,18.4,N/A,,Overcast,30,2013-02-26 03:35:00
9:55 PM,30.6,26.6,85,29.89,4.0,NNE,15.0,-,N/A,,Overcast,30,2013-02-26 03:55:00
10:15 PM,30.6,26.6,85,29.90,4.0,NNE,15.0,-,N/A,,Overcast,30,2013-02-26 04:15:00
10:35 PM,30.6,26.6,85,29.90,4.0,NNE,16.1,19.6,N/A,,Overcast,20,2013-02-26 04:35:00
10:55 PM,30.2,26.4,86,29.88,4.0,NNE,16.1,23.0,N/A,,Overcast,30,2013-02-26 04:55:00
11:15 PM,30.0,26.4,86,29.88,4.0,NNE,16.1,-,N/A,,Overcast,30,2013-02-26 05:15:00
11:35 PM,30.0,26.2,86,29.88,4.0,NNE,15.0,20.7,N/A,,Overcast,30,2013-02-26 05:35:00
11:55 PM,29.8,26.2,86,29.86,4.0,North,15.0,-,N/A,,Overcast,10,2013-02-26 05:55:00